Year,Month,Day,Hour,Minute,Value (Times are PST for temperature in C)
2012,09,20,00,00,13.70
2012,09,20,00,01,13.70
2012,09,20,00,02,13.70
2012,09,20,00,03,13.60
2012,09,20,00,04,13.60
2012,09,20,00,05,13.60
2012,09,20,00,06,13.50
2012,09,20,00,07,13.50
2012,09,20,00,08,13.50
2012,09,20,00,09,13.40
2012,09,20,00,10,13.40
2012,09,20,00,11,13.40
2012,09,20,00,12,13.30
2012,09,20,00,13,13.30
2012,09,20,00,14,13.30
2012,09,20,00,15,13.30
2012,09,20,00,16,13.30
2012,09,20,00,17,13.20
2012,09,20,00,18,13.20
2012,09,20,00,19,13.20
2012,09,20,00,20,13.20
2012,09,20,00,21,13.20
2012,09,20,00,22,13.20
2012,09,20,00,23,13.10
2012,09,20,00,24,13.10
2012,09,20,00,25,13.10
2012,09,20,00,26,13.10
2012,09,20,00,27,13.10
2012,09,20,00,28,13.10
2012,09,20,00,29,13.10
2012,09,20,00,30,13.10
2012,09,20,00,31,13.10
2012,09,20,00,32,13.10
2012,09,20,00,33,13.00
2012,09,20,00,34,13.00
2012,09,20,00,35,13.00
2012,09,20,00,36,12.90
2012,09,20,00,37,12.90
2012,09,20,00,38,12.90
2012,09,20,00,39,12.90
2012,09,20,00,40,12.90
2012,09,20,00,41,12.90
2012,09,20,00,42,12.90
2012,09,20,00,43,12.90
2012,09,20,00,44,12.90
2012,09,20,00,45,12.90
2012,09,20,00,46,12.90
2012,09,20,00,47,12.90
2012,09,20,00,48,12.80
2012,09,20,00,49,12.80
2012,09,20,00,50,12.80
2012,09,20,00,51,12.80
2012,09,20,00,52,12.80
2012,09,20,00,53,12.80
2012,09,20,00,54,12.80
2012,09,20,00,55,12.90
2012,09,20,00,56,12.90
2012,09,20,00,57,12.90
2012,09,20,00,58,12.90
2012,09,20,00,59,12.90
2012,09,20,01,00,12.90
2012,09,20,01,01,12.90
2012,09,20,01,02,12.90
2012,09,20,01,03,12.90
2012,09,20,01,04,12.90
2012,09,20,01,05,12.90
2012,09,20,01,06,12.90
2012,09,20,01,07,12.90
2012,09,20,01,08,12.80
2012,09,20,01,09,12.80
2012,09,20,01,10,12.80
2012,09,20,01,11,12.80
2012,09,20,01,12,12.80
2012,09,20,01,13,12.80
2012,09,20,01,14,12.80
2012,09,20,01,15,12.70
2012,09,20,01,16,12.70
2012,09,20,01,17,12.70
2012,09,20,01,18,12.70
2012,09,20,01,19,12.70
2012,09,20,01,20,12.60
2012,09,20,01,21,12.60
2012,09,20,01,22,12.60
2012,09,20,01,23,12.50
2012,09,20,01,24,12.50
2012,09,20,01,25,12.50
2012,09,20,01,26,12.40
2012,09,20,01,27,12.40
2012,09,20,01,28,12.40
2012,09,20,01,29,12.40
2012,09,20,01,30,12.30
2012,09,20,01,31,12.30
2012,09,20,01,32,12.30
2012,09,20,01,33,12.30
2012,09,20,01,34,12.30
2012,09,20,01,35,12.30
2012,09,20,01,36,12.30
2012,09,20,01,37,12.30
2012,09,20,01,38,12.30
2012,09,20,01,39,12.30
2012,09,20,01,40,12.30
2012,09,20,01,41,12.20
2012,09,20,01,42,12.20
2012,09,20,01,43,12.20
2012,09,20,01,44,12.20
2012,09,20,01,45,12.20
2012,09,20,01,46,12.20
2012,09,20,01,47,12.20
2012,09,20,01,48,12.20
2012,09,20,01,49,12.20
2012,09,20,01,50,12.20
2012,09,20,01,51,12.20
2012,09,20,01,52,12.20
2012,09,20,01,53,12.20
2012,09,20,01,54,12.20
2012,09,20,01,55,12.20
2012,09,20,01,56,12.20
2012,09,20,01,57,12.10
2012,09,20,01,58,12.10
2012,09,20,01,59,12.10
2012,09,20,02,00,12.10
2012,09,20,02,01,12.00
2012,09,20,02,02,12.00
2012,09,20,02,03,12.00
2012,09,20,02,04,11.90
2012,09,20,02,05,11.90
2012,09,20,02,06,11.90
2012,09,20,02,07,11.80
2012,09,20,02,08,11.80
2012,09,20,02,09,11.80
2012,09,20,02,10,11.80
2012,09,20,02,11,11.80
2012,09,20,02,12,11.80
2012,09,20,02,13,11.70
2012,09,20,02,14,11.70
2012,09,20,02,15,11.70
2012,09,20,02,16,11.70
2012,09,20,02,17,11.70
2012,09,20,02,18,11.70
2012,09,20,02,19,11.70
2012,09,20,02,20,11.70
2012,09,20,02,21,11.70
2012,09,20,02,22,11.70
2012,09,20,02,23,11.70
2012,09,20,02,24,11.70
2012,09,20,02,25,11.70
2012,09,20,02,26,11.70
2012,09,20,02,27,11.70
2012,09,20,02,28,11.70
2012,09,20,02,29,11.60
2012,09,20,02,30,11.60
2012,09,20,02,31,11.60
2012,09,20,02,32,11.60
2012,09,20,02,33,11.60
2012,09,20,02,34,11.60
2012,09,20,02,35,11.60
2012,09,20,02,36,11.60
2012,09,20,02,37,11.60
2012,09,20,02,38,11.60
2012,09,20,02,39,11.50
2012,09,20,02,40,11.50
2012,09,20,02,41,11.50
2012,09,20,02,42,11.50
2012,09,20,02,43,11.40
2012,09,20,02,44,11.40
2012,09,20,02,45,11.40
2012,09,20,02,46,11.40
2012,09,20,02,47,11.40
2012,09,20,02,48,11.40
2012,09,20,02,49,11.40
2012,09,20,02,50,11.40
2012,09,20,02,51,11.40
2012,09,20,02,52,11.40
2012,09,20,02,53,11.50
2012,09,20,02,54,11.50
2012,09,20,02,55,11.50
2012,09,20,02,56,11.50
2012,09,20,02,57,11.50
2012,09,20,02,58,11.40
2012,09,20,02,59,11.40
2012,09,20,03,00,11.40
2012,09,20,03,01,11.40
2012,09,20,03,02,11.40
2012,09,20,03,03,11.40
2012,09,20,03,06,11.50
2012,09,20,03,07,11.50
2012,09,20,03,08,11.50
2012,09,20,03,09,11.60
2012,09,20,03,10,11.60
2012,09,20,03,11,11.60
2012,09,20,03,12,11.60
2012,09,20,03,13,11.60
2012,09,20,03,14,11.60
2012,09,20,03,15,11.50
2012,09,20,03,16,11.50
2012,09,20,03,17,11.60
2012,09,20,03,18,11.60
2012,09,20,03,19,11.50
2012,09,20,03,20,11.50
2012,09,20,03,21,11.50
2012,09,20,03,22,11.50
2012,09,20,03,23,11.50
2012,09,20,03,24,11.40
2012,09,20,03,25,11.40
2012,09,20,03,26,11.40
2012,09,20,03,27,11.40
2012,09,20,03,28,11.40
2012,09,20,03,29,11.40
2012,09,20,03,30,11.30
2012,09,20,03,31,11.30
2012,09,20,03,32,11.30
2012,09,20,03,33,11.30
2012,09,20,03,34,11.30
2012,09,20,03,35,11.30
2012,09,20,03,36,11.30
2012,09,20,03,37,11.30
2012,09,20,03,38,11.30
2012,09,20,03,39,11.30
2012,09,20,03,40,11.30
2012,09,20,03,41,11.30
2012,09,20,03,42,11.30
2012,09,20,03,43,11.30
2012,09,20,03,44,11.20
2012,09,20,03,45,11.20
2012,09,20,03,46,11.20
2012,09,20,03,47,11.20
2012,09,20,03,48,11.20
2012,09,20,03,49,11.20
2012,09,20,03,50,11.20
2012,09,20,03,51,11.10
2012,09,20,03,52,11.10
2012,09,20,03,53,11.10
2012,09,20,03,54,11.20
2012,09,20,03,55,11.20
2012,09,20,03,56,11.20
2012,09,20,03,57,11.20
2012,09,20,03,58,11.20
2012,09,20,03,59,11.20
2012,09,20,04,00,11.30
2012,09,20,04,01,11.30
2012,09,20,04,02,11.30
2012,09,20,04,03,11.30
2012,09,20,04,04,11.30
2012,09,20,04,05,11.30
2012,09,20,04,06,11.30
2012,09,20,04,07,11.30
2012,09,20,04,08,11.30
2012,09,20,04,09,11.30
2012,09,20,04,10,11.20
2012,09,20,04,11,11.20
2012,09,20,04,12,11.20
2012,09,20,04,13,11.20
2012,09,20,04,14,11.20
2012,09,20,04,15,11.10
2012,09,20,04,16,11.10
2012,09,20,04,17,11.10
2012,09,20,04,18,11.00
2012,09,20,04,19,11.00
2012,09,20,04,20,11.00
2012,09,20,04,21,10.90
2012,09,20,04,22,10.90
2012,09,20,04,23,10.90
2012,09,20,04,24,10.90
2012,09,20,04,25,10.90
2012,09,20,04,26,10.90
2012,09,20,04,27,10.80
2012,09,20,04,28,10.80
2012,09,20,04,29,10.80
2012,09,20,04,30,10.80
2012,09,20,04,31,10.80
2012,09,20,04,32,10.70
2012,09,20,04,33,10.70
2012,09,20,04,34,10.70
2012,09,20,04,35,10.70
2012,09,20,04,36,10.70
2012,09,20,04,37,10.70
2012,09,20,04,38,10.60
2012,09,20,04,39,10.60
2012,09,20,04,40,10.60
2012,09,20,04,41,10.60
2012,09,20,04,42,10.60
2012,09,20,04,43,10.60
2012,09,20,04,44,10.60
2012,09,20,04,45,10.60
2012,09,20,04,46,10.70
2012,09,20,04,47,10.70
2012,09,20,04,48,10.60
2012,09,20,04,49,10.70
2012,09,20,04,50,10.70
2012,09,20,04,51,10.70
2012,09,20,04,52,10.70
2012,09,20,04,53,10.70
2012,09,20,04,54,10.70
2012,09,20,04,55,10.70
2012,09,20,04,56,10.70
2012,09,20,04,57,10.70
2012,09,20,04,58,10.70
2012,09,20,04,59,10.70
2012,09,20,05,00,10.80
2012,09,20,05,01,10.80
2012,09,20,05,02,10.70
2012,09,20,05,03,10.70
2012,09,20,05,04,10.70
2012,09,20,05,05,10.70
2012,09,20,05,06,10.70
2012,09,20,05,07,10.70
2012,09,20,05,08,10.60
2012,09,20,05,09,10.60
2012,09,20,05,10,10.60
2012,09,20,05,11,10.60
2012,09,20,05,12,10.60
2012,09,20,05,13,10.60
2012,09,20,05,14,10.60
2012,09,20,05,15,10.60
2012,09,20,05,16,10.60
2012,09,20,05,17,10.60
2012,09,20,05,18,10.60
2012,09,20,05,19,10.50
2012,09,20,05,20,10.50
2012,09,20,05,21,10.50
2012,09,20,05,22,10.50
2012,09,20,05,23,10.50
2012,09,20,05,24,10.50
2012,09,20,05,25,10.50
2012,09,20,05,26,10.50
2012,09,20,05,27,10.50
2012,09,20,05,28,10.50
2012,09,20,05,29,10.50
2012,09,20,05,30,10.50
2012,09,20,05,31,10.50
2012,09,20,05,32,10.50
2012,09,20,05,33,10.50
2012,09,20,05,34,10.40
2012,09,20,05,35,10.40
2012,09,20,05,36,10.40
2012,09,20,05,37,10.40
2012,09,20,05,38,10.40
2012,09,20,05,39,10.50
2012,09,20,05,40,10.50
2012,09,20,05,41,10.50
2012,09,20,05,42,10.50
2012,09,20,05,43,10.50
2012,09,20,05,44,10.50
2012,09,20,05,45,10.50
2012,09,20,05,46,10.50
2012,09,20,05,47,10.50
2012,09,20,05,48,10.50
2012,09,20,05,49,10.50
2012,09,20,05,50,10.40
2012,09,20,05,51,10.40
2012,09,20,05,52,10.40
2012,09,20,05,53,10.40
2012,09,20,05,54,10.40
2012,09,20,05,55,10.40
2012,09,20,05,56,10.30
2012,09,20,05,57,10.30
2012,09,20,05,58,10.30
2012,09,20,05,59,10.30
2012,09,20,06,00,10.20
2012,09,20,06,01,10.20
2012,09,20,06,02,10.20
2012,09,20,06,03,10.10
2012,09,20,06,04,10.10
2012,09,20,06,05,10.00
2012,09,20,06,06,10.00
2012,09,20,06,07,9.90
2012,09,20,06,08,9.90
2012,09,20,06,09,9.90
2012,09,20,06,10,9.80
2012,09,20,06,11,9.80
2012,09,20,06,12,9.80
2012,09,20,06,13,9.80
2012,09,20,06,14,9.80
2012,09,20,06,15,9.80
2012,09,20,06,16,9.80
2012,09,20,06,17,9.70
2012,09,20,06,18,9.70
2012,09,20,06,19,9.70
2012,09,20,06,20,9.60
2012,09,20,06,21,9.60
2012,09,20,06,22,9.60
2012,09,20,06,23,9.60
2012,09,20,06,24,9.60
2012,09,20,06,25,9.60
2012,09,20,06,26,9.50
2012,09,20,06,27,9.50
2012,09,20,06,28,9.50
2012,09,20,06,29,9.50
2012,09,20,06,30,9.40
2012,09,20,06,31,9.40
2012,09,20,06,32,9.40
2012,09,20,06,33,9.40
2012,09,20,06,34,9.40
2012,09,20,06,35,9.40
2012,09,20,06,36,9.40
2012,09,20,06,37,9.40
2012,09,20,06,38,9.40
2012,09,20,06,39,9.40
2012,09,20,06,40,9.40
2012,09,20,06,41,9.40
2012,09,20,06,42,9.40
2012,09,20,06,43,9.40
2012,09,20,06,44,9.40
2012,09,20,06,45,9.40
2012,09,20,06,46,9.50
2012,09,20,06,47,9.50
2012,09,20,06,48,9.40
2012,09,20,06,49,9.40
2012,09,20,06,50,9.40
2012,09,20,06,51,9.40
2012,09,20,06,52,9.40
2012,09,20,06,53,9.40
2012,09,20,06,54,9.40
2012,09,20,06,55,9.40
2012,09,20,06,56,9.40
2012,09,20,06,57,9.40
2012,09,20,06,58,9.40
2012,09,20,06,59,9.40
2012,09,20,07,00,9.30
2012,09,20,07,01,9.30
2012,09,20,07,02,9.30
2012,09,20,07,03,9.30
2012,09,20,07,04,9.30
2012,09,20,07,05,9.20
2012,09,20,07,06,9.20
2012,09,20,07,07,9.20
2012,09,20,07,08,9.20
2012,09,20,07,09,9.20
2012,09,20,07,10,9.20
2012,09,20,07,11,9.20
2012,09,20,07,12,9.20
2012,09,20,07,13,9.20
2012,09,20,07,14,9.20
2012,09,20,07,15,9.20
2012,09,20,07,16,9.20
2012,09,20,07,17,9.20
2012,09,20,07,18,9.20
2012,09,20,07,19,9.20
2012,09,20,07,20,9.20
2012,09,20,07,21,9.20
2012,09,20,07,22,9.20
2012,09,20,07,23,9.20
2012,09,20,07,24,9.20
2012,09,20,07,25,9.20
2012,09,20,07,26,9.10
2012,09,20,07,27,9.10
2012,09,20,07,28,9.10
2012,09,20,07,29,9.10
2012,09,20,07,30,9.10
2012,09,20,07,31,9.10
2012,09,20,07,32,9.10
2012,09,20,07,33,9.10
2012,09,20,07,34,9.10
2012,09,20,07,35,9.10
2012,09,20,07,36,9.10
2012,09,20,07,37,9.10
2012,09,20,07,38,9.10
2012,09,20,07,39,9.10
2012,09,20,07,40,9.10
2012,09,20,07,41,9.10
2012,09,20,07,42,9.10
2012,09,20,07,43,9.10
2012,09,20,07,44,9.10
2012,09,20,07,45,9.10
2012,09,20,07,46,9.10
2012,09,20,07,47,9.20
2012,09,20,07,48,9.20
2012,09,20,07,49,9.20
2012,09,20,07,50,9.20
2012,09,20,07,51,9.20
2012,09,20,07,52,9.20
2012,09,20,07,53,9.30
2012,09,20,07,54,9.30
2012,09,20,07,55,9.30
2012,09,20,07,56,9.30
2012,09,20,07,57,9.30
2012,09,20,07,58,9.30
2012,09,20,07,59,9.40
2012,09,20,08,00,9.40
2012,09,20,08,01,9.40
2012,09,20,08,02,9.40
2012,09,20,08,03,9.40
2012,09,20,08,04,9.50
2012,09,20,08,05,9.50
2012,09,20,08,06,9.50
2012,09,20,08,07,9.50
2012,09,20,08,08,9.50
2012,09,20,08,09,9.50
2012,09,20,08,10,9.60
2012,09,20,08,11,9.60
2012,09,20,08,12,9.60
2012,09,20,08,13,9.60
2012,09,20,08,14,9.60
2012,09,20,08,15,9.70
2012,09,20,08,16,9.70
2012,09,20,08,17,9.70
2012,09,20,08,18,9.70
2012,09,20,08,19,9.80
2012,09,20,08,20,9.80
2012,09,20,08,21,9.80
2012,09,20,08,22,9.80
2012,09,20,08,23,9.80
2012,09,20,08,24,9.80
2012,09,20,08,25,9.80
2012,09,20,08,26,9.80
2012,09,20,08,27,9.80
2012,09,20,08,28,9.90
2012,09,20,08,29,9.90
2012,09,20,08,30,9.90
2012,09,20,08,31,9.90
2012,09,20,08,32,9.90
2012,09,20,08,33,9.90
2012,09,20,08,34,9.90
2012,09,20,08,35,9.90
2012,09,20,08,36,9.90
2012,09,20,08,37,9.90
2012,09,20,08,38,9.90
2012,09,20,08,39,9.90
2012,09,20,08,40,9.90
2012,09,20,08,41,9.90
2012,09,20,08,42,9.90
2012,09,20,08,43,9.90
2012,09,20,08,44,9.90
2012,09,20,08,45,10.00
2012,09,20,08,46,10.00
2012,09,20,08,47,10.00
2012,09,20,08,48,10.00
2012,09,20,08,49,10.00
2012,09,20,08,50,10.00
2012,09,20,08,51,10.10
2012,09,20,08,52,10.00
2012,09,20,08,53,10.10
2012,09,20,08,54,10.10
2012,09,20,08,55,10.10
2012,09,20,08,56,10.10
2012,09,20,08,57,10.20
2012,09,20,08,58,10.20
2012,09,20,08,59,10.20
2012,09,20,09,00,10.20
2012,09,20,09,01,10.30
2012,09,20,09,02,10.30
2012,09,20,09,03,10.30
2012,09,20,09,04,10.40
2012,09,20,09,05,10.40
2012,09,20,09,06,10.50
2012,09,20,09,07,10.50
2012,09,20,09,08,10.60
2012,09,20,09,09,10.60
2012,09,20,09,10,10.70
2012,09,20,09,11,10.70
2012,09,20,09,12,10.80
2012,09,20,09,13,10.80
2012,09,20,09,14,10.90
2012,09,20,09,15,10.90
2012,09,20,09,16,11.00
2012,09,20,09,17,11.00
2012,09,20,09,18,11.00
2012,09,20,09,19,11.00
2012,09,20,09,20,11.00
2012,09,20,09,21,11.10
2012,09,20,09,22,11.10
2012,09,20,09,23,11.10
2012,09,20,09,24,11.10
2012,09,20,09,25,11.10
2012,09,20,09,26,11.20
2012,09,20,09,27,11.20
2012,09,20,09,28,11.30
2012,09,20,09,29,11.30
2012,09,20,09,30,11.30
2012,09,20,09,31,11.40
2012,09,20,09,32,11.40
2012,09,20,09,33,11.50
2012,09,20,09,34,11.60
2012,09,20,09,35,11.60
2012,09,20,09,36,11.70
2012,09,20,09,37,11.70
2012,09,20,09,38,11.70
2012,09,20,09,39,11.70
2012,09,20,09,40,11.90
2012,09,20,09,41,11.90
2012,09,20,09,42,12.00
2012,09,20,09,43,12.10
2012,09,20,09,44,12.10
2012,09,20,09,45,12.20
2012,09,20,09,46,12.20
2012,09,20,09,47,12.20
2012,09,20,09,48,12.20
2012,09,20,09,49,12.20
2012,09,20,09,50,12.20
2012,09,20,09,51,12.30
2012,09,20,09,52,12.30
2012,09,20,09,53,12.30
2012,09,20,09,54,12.30
2012,09,20,09,55,12.40
2012,09,20,09,56,12.40
2012,09,20,09,57,12.40
2012,09,20,09,58,12.40
2012,09,20,09,59,12.40
2012,09,20,10,00,12.40
2012,09,20,10,01,12.40
2012,09,20,10,02,12.50
2012,09,20,10,03,12.50
2012,09,20,10,04,12.50
2012,09,20,10,05,12.50
2012,09,20,10,06,12.60
2012,09,20,10,07,12.60
2012,09,20,10,08,12.60
2012,09,20,10,09,12.70
2012,09,20,10,10,12.70
2012,09,20,10,11,12.70
2012,09,20,10,12,12.70
2012,09,20,10,13,12.80
2012,09,20,10,14,12.80
2012,09,20,10,15,12.80
2012,09,20,10,16,12.80
2012,09,20,10,17,12.90
2012,09,20,10,18,12.90
2012,09,20,10,19,13.00
2012,09,20,10,20,13.00
2012,09,20,10,21,13.10
2012,09,20,10,22,13.10
2012,09,20,10,23,13.10
2012,09,20,10,24,13.20
2012,09,20,10,25,13.30
2012,09,20,10,26,13.40
2012,09,20,10,27,13.50
2012,09,20,10,28,13.50
2012,09,20,10,29,13.60
2012,09,20,10,30,13.70
2012,09,20,10,31,13.70
2012,09,20,10,32,13.80
2012,09,20,10,33,13.90
2012,09,20,10,34,14.00
2012,09,20,10,35,14.10
2012,09,20,10,36,14.20
2012,09,20,10,37,14.30
2012,09,20,10,38,14.40
2012,09,20,10,39,14.50
2012,09,20,10,40,14.60
2012,09,20,10,41,14.70
2012,09,20,10,42,14.70
2012,09,20,10,43,14.80
2012,09,20,10,44,14.90
2012,09,20,10,45,14.90
2012,09,20,10,46,15.00
2012,09,20,10,47,15.10
2012,09,20,10,48,15.10
2012,09,20,10,49,15.20
2012,09,20,10,50,15.20
2012,09,20,10,51,15.20
2012,09,20,10,52,15.30
2012,09,20,10,53,15.30
2012,09,20,10,54,15.30
2012,09,20,10,55,15.30
2012,09,20,10,56,15.30
2012,09,20,10,57,15.30
2012,09,20,10,58,15.40
2012,09,20,10,59,15.40
2012,09,20,11,00,15.40
2012,09,20,11,01,15.50
2012,09,20,11,02,15.60
2012,09,20,11,03,15.60
2012,09,20,11,04,15.70
2012,09,20,11,05,15.70
2012,09,20,11,06,15.80
2012,09,20,11,07,15.80
2012,09,20,11,08,15.90
2012,09,20,11,09,16.00
2012,09,20,11,10,16.00
2012,09,20,11,11,16.10
2012,09,20,11,12,16.20
2012,09,20,11,13,16.30
2012,09,20,11,14,16.30
2012,09,20,11,15,16.40
2012,09,20,11,16,16.50
2012,09,20,11,17,16.60
2012,09,20,11,18,16.60
2012,09,20,11,19,16.70
2012,09,20,11,20,16.70
2012,09,20,11,21,16.80
2012,09,20,11,22,16.80
2012,09,20,11,23,16.90
2012,09,20,11,24,17.00
2012,09,20,11,25,17.10
2012,09,20,11,26,17.20
2012,09,20,11,27,17.30
2012,09,20,11,28,17.40
2012,09,20,11,29,17.50
2012,09,20,11,30,17.50
2012,09,20,11,31,17.60
2012,09,20,11,32,17.70
2012,09,20,11,33,17.70
2012,09,20,11,34,17.80
2012,09,20,11,35,17.80
2012,09,20,11,36,17.90
2012,09,20,11,37,17.90
2012,09,20,11,38,18.00
2012,09,20,11,39,18.00
2012,09,20,11,40,18.10
2012,09,20,11,41,18.20
2012,09,20,11,42,18.20
2012,09,20,11,43,18.30
2012,09,20,11,44,18.30
2012,09,20,11,45,18.40
2012,09,20,11,46,18.50
2012,09,20,11,47,18.60
2012,09,20,11,48,18.60
2012,09,20,11,49,18.80
2012,09,20,11,50,18.90
2012,09,20,11,51,19.00
2012,09,20,11,52,19.00
2012,09,20,11,53,19.10
2012,09,20,11,54,19.20
2012,09,20,11,55,19.30
2012,09,20,11,56,19.40
2012,09,20,11,57,19.50
2012,09,20,11,58,19.60
2012,09,20,11,59,19.70
2012,09,20,12,00,19.80
2012,09,20,12,01,19.90
2012,09,20,12,02,19.90
2012,09,20,12,03,20.00
2012,09,20,12,04,20.10
2012,09,20,12,05,20.10
2012,09,20,12,06,20.10
2012,09,20,12,07,20.20
2012,09,20,12,08,20.20
2012,09,20,12,09,20.30
2012,09,20,12,10,20.30
2012,09,20,12,11,20.40
2012,09,20,12,12,20.50
2012,09,20,12,13,20.60
2012,09,20,12,14,20.70
2012,09,20,12,15,20.70
2012,09,20,12,16,20.80
2012,09,20,12,17,20.80
2012,09,20,12,18,20.90
2012,09,20,12,19,20.90
2012,09,20,12,20,21.00
2012,09,20,12,21,21.00
2012,09,20,12,22,21.10
2012,09,20,12,23,21.10
2012,09,20,12,24,21.20
2012,09,20,12,25,21.20
2012,09,20,12,26,21.30
2012,09,20,12,27,21.40
2012,09,20,12,28,21.50
2012,09,20,12,29,21.60
2012,09,20,12,30,21.70
2012,09,20,12,31,21.70
2012,09,20,12,32,21.70
2012,09,20,12,33,21.80
2012,09,20,12,34,21.80
2012,09,20,12,35,21.90
2012,09,20,12,36,22.00
2012,09,20,12,37,22.10
2012,09,20,12,38,22.20
2012,09,20,12,39,22.30
2012,09,20,12,40,22.30
2012,09,20,12,41,22.30
2012,09,20,12,42,22.40
2012,09,20,12,43,22.40
2012,09,20,12,44,22.40
2012,09,20,12,45,22.40
2012,09,20,12,46,22.40
2012,09,20,12,47,22.50
2012,09,20,12,48,22.50
2012,09,20,12,49,22.60
2012,09,20,12,50,22.60
2012,09,20,12,51,22.70
2012,09,20,12,52,22.80
2012,09,20,12,53,22.90
2012,09,20,12,54,23.00
2012,09,20,12,55,23.10
2012,09,20,12,56,23.10
2012,09,20,12,57,23.10
2012,09,20,12,58,23.10
2012,09,20,12,59,23.20
2012,09,20,13,00,23.20
2012,09,20,13,01,23.20
2012,09,20,13,02,23.10
2012,09,20,13,03,23.10
2012,09,20,13,04,23.20
2012,09,20,13,05,23.20
2012,09,20,13,06,23.30
2012,09,20,13,07,23.30
2012,09,20,13,08,23.30
2012,09,20,13,09,23.30
2012,09,20,13,10,23.40
2012,09,20,13,11,23.40
2012,09,20,13,12,23.50
2012,09,20,13,13,23.50
2012,09,20,13,14,23.60
2012,09,20,13,15,23.60
2012,09,20,13,16,23.70
2012,09,20,13,17,23.80
2012,09,20,13,18,23.90
2012,09,20,13,19,23.90
2012,09,20,13,20,24.00
2012,09,20,13,21,24.00
2012,09,20,13,22,24.00
2012,09,20,13,23,24.10
2012,09,20,13,24,24.10
2012,09,20,13,25,24.20
2012,09,20,13,26,24.20
2012,09,20,13,27,24.20
2012,09,20,13,28,24.30
2012,09,20,13,29,24.30
2012,09,20,13,30,24.40
2012,09,20,13,31,24.50
2012,09,20,13,32,24.70
2012,09,20,13,33,24.80
2012,09,20,13,34,24.90
2012,09,20,13,35,25.00
2012,09,20,13,36,25.10
2012,09,20,13,37,25.20
2012,09,20,13,38,25.20
2012,09,20,13,39,25.30
2012,09,20,13,40,25.40
2012,09,20,13,41,25.50
2012,09,20,13,42,25.50
2012,09,20,13,43,25.60
2012,09,20,13,44,25.60
2012,09,20,13,45,25.70
2012,09,20,13,46,25.80
2012,09,20,13,47,25.80
2012,09,20,13,48,25.80
2012,09,20,13,49,25.80
2012,09,20,13,50,25.80
2012,09,20,13,51,25.90
2012,09,20,13,52,25.90
2012,09,20,13,53,26.00
2012,09,20,13,54,26.00
2012,09,20,13,55,26.10
2012,09,20,13,56,26.20
2012,09,20,13,57,26.20
2012,09,20,13,58,26.30
2012,09,20,13,59,26.40
2012,09,20,14,00,26.50
2012,09,20,14,01,26.60
2012,09,20,14,02,26.80
2012,09,20,14,03,26.90
2012,09,20,14,04,26.90
2012,09,20,14,05,27.00
2012,09,20,14,06,27.10
2012,09,20,14,07,27.10
2012,09,20,14,08,27.00
2012,09,20,14,09,27.00
2012,09,20,14,10,26.90
2012,09,20,14,11,27.00
2012,09,20,14,12,27.00
2012,09,20,14,13,27.00
2012,09,20,14,14,27.00
2012,09,20,14,15,27.00
2012,09,20,14,16,26.90
2012,09,20,14,17,26.90
2012,09,20,14,18,26.90
2012,09,20,14,19,26.90
2012,09,20,14,20,27.00
2012,09,20,14,21,27.00
2012,09,20,14,22,27.10
2012,09,20,14,23,27.00
2012,09,20,14,24,27.00
2012,09,20,14,25,26.90
2012,09,20,14,26,26.90
2012,09,20,14,27,26.90
2012,09,20,14,28,26.90
2012,09,20,14,29,26.90
2012,09,20,14,30,26.90
2012,09,20,14,31,27.00
2012,09,20,14,32,27.00
2012,09,20,14,33,27.10
2012,09,20,14,34,27.20
2012,09,20,14,35,27.20
2012,09,20,14,36,27.30
2012,09,20,14,37,27.30
2012,09,20,14,38,27.40
2012,09,20,14,39,27.50
2012,09,20,14,40,27.60
2012,09,20,14,41,27.60
2012,09,20,14,42,27.70
2012,09,20,14,43,27.70
2012,09,20,14,44,27.70
2012,09,20,14,45,27.80
2012,09,20,14,46,27.70
2012,09,20,14,47,27.60
2012,09,20,14,48,27.50
2012,09,20,14,49,27.40
2012,09,20,14,50,27.30
2012,09,20,14,51,27.30
2012,09,20,14,52,27.30
2012,09,20,14,53,27.30
2012,09,20,14,54,27.30
2012,09,20,14,55,27.30
2012,09,20,14,56,27.30
2012,09,20,14,57,27.30
2012,09,20,14,58,27.20
2012,09,20,14,59,27.20
2012,09,20,15,00,27.20
2012,09,20,15,01,27.20
2012,09,20,15,02,27.20
2012,09,20,15,03,27.20
2012,09,20,15,04,27.20
2012,09,20,15,05,27.30
2012,09,20,15,06,27.30
2012,09,20,15,07,27.30
2012,09,20,15,08,27.20
2012,09,20,15,09,27.20
2012,09,20,15,10,27.20
2012,09,20,15,11,27.10
2012,09,20,15,12,27.00
2012,09,20,15,13,26.80
2012,09,20,15,14,26.70
2012,09,20,15,15,26.50
2012,09,20,15,16,26.30
2012,09,20,15,17,26.10
2012,09,20,15,18,25.90
2012,09,20,15,19,25.80
2012,09,20,15,20,25.70
2012,09,20,15,21,25.70
2012,09,20,15,22,25.60
2012,09,20,15,23,25.60
2012,09,20,15,24,25.60
2012,09,20,15,25,25.50
2012,09,20,15,26,25.40
2012,09,20,15,27,25.30
2012,09,20,15,28,25.20
2012,09,20,15,29,25.20
2012,09,20,15,30,25.10
2012,09,20,15,31,25.10
2012,09,20,15,32,25.10
2012,09,20,15,33,25.10
2012,09,20,15,34,25.10
2012,09,20,15,35,25.00
2012,09,20,15,36,24.90
2012,09,20,15,37,24.80
2012,09,20,15,38,24.80
2012,09,20,15,39,24.90
2012,09,20,15,40,24.90
2012,09,20,15,41,24.90
2012,09,20,15,42,24.80
2012,09,20,15,43,24.90
2012,09,20,15,44,24.90
2012,09,20,15,45,24.90
2012,09,20,15,46,24.90
2012,09,20,15,47,24.80
2012,09,20,15,48,24.80
2012,09,20,15,49,24.70
2012,09,20,15,50,24.70
2012,09,20,15,51,24.70
2012,09,20,15,52,24.70
2012,09,20,15,53,24.70
2012,09,20,15,54,24.60
2012,09,20,15,55,24.50
2012,09,20,15,56,24.40
2012,09,20,15,57,24.30
2012,09,20,15,58,24.30
2012,09,20,15,59,24.40
2012,09,20,16,00,24.40
2012,09,20,16,01,24.30
2012,09,20,16,02,24.30
2012,09,20,16,03,24.30
2012,09,20,16,04,24.30
2012,09,20,16,05,24.40
2012,09,20,16,06,24.30
2012,09,20,16,07,24.30
2012,09,20,16,08,24.30
2012,09,20,16,09,24.30
2012,09,20,16,10,24.20
2012,09,20,16,11,24.10
2012,09,20,16,12,24.10
2012,09,20,16,13,24.10
2012,09,20,16,14,24.10
2012,09,20,16,15,24.00
2012,09,20,16,16,23.90
2012,09,20,16,17,23.80
2012,09,20,16,18,23.70
2012,09,20,16,19,23.70
2012,09,20,16,20,23.60
2012,09,20,16,21,23.60
2012,09,20,16,22,23.60
2012,09,20,16,23,23.50
2012,09,20,16,24,23.40
2012,09,20,16,25,23.40
2012,09,20,16,26,23.40
2012,09,20,16,27,23.30
2012,09,20,16,28,23.20
2012,09,20,16,29,23.10
2012,09,20,16,30,23.10
2012,09,20,16,31,23.00
2012,09,20,16,32,23.10
2012,09,20,16,33,23.20
2012,09,20,16,34,23.20
2012,09,20,16,35,23.10
2012,09,20,16,36,23.00
2012,09,20,16,37,23.00
2012,09,20,16,38,23.00
2012,09,20,16,39,23.00
2012,09,20,16,40,22.90
2012,09,20,16,41,22.90
2012,09,20,16,42,22.80
2012,09,20,16,43,22.80
2012,09,20,16,44,22.70
2012,09,20,16,45,22.60
2012,09,20,16,46,22.60
2012,09,20,16,47,22.50
2012,09,20,16,48,22.40
2012,09,20,16,49,22.40
2012,09,20,16,50,22.30
2012,09,20,16,51,22.30
2012,09,20,16,52,22.20
2012,09,20,16,53,22.20
2012,09,20,16,54,22.20
2012,09,20,16,55,22.10
2012,09,20,16,56,22.10
2012,09,20,16,57,22.20
2012,09,20,16,58,22.20
2012,09,20,16,59,22.20
2012,09,20,17,00,22.20
2012,09,20,17,01,22.20
2012,09,20,17,02,22.20
2012,09,20,17,03,22.30
2012,09,20,17,04,22.30
2012,09,20,17,05,22.30
2012,09,20,17,06,22.40
2012,09,20,17,07,22.40
2012,09,20,17,08,22.40
2012,09,20,17,09,22.50
2012,09,20,17,10,22.50
2012,09,20,17,11,22.50
2012,09,20,17,12,22.50
2012,09,20,17,13,22.50
2012,09,20,17,14,22.40
2012,09,20,17,15,22.40
2012,09,20,17,16,22.40
2012,09,20,17,17,22.40
2012,09,20,17,18,22.30
2012,09,20,17,19,22.30
2012,09,20,17,20,22.20
2012,09,20,17,21,22.10
2012,09,20,17,22,22.10
2012,09,20,17,23,22.00
2012,09,20,17,24,22.00
2012,09,20,17,25,21.90
2012,09,20,17,26,21.90
2012,09,20,17,27,21.90
2012,09,20,17,28,21.80